Regional Weather Roundup
Issued by NWS

Home | Current Version | Previous Version | Graphics & Text | Print | Product List | Glossary On
Versions: 1 2 3 4 5 6 7 8 9 10 11 12 13 14 15 16 17 18 19 20 21 22 23 24 25 26 27 28 29 30 31 32 33 34 35 36 37 38 39 40 41 42 43 44 45 46 47 48 49 50
000
ASUS43 KLOT 282258
RWRIL

ILLINOIS REGIONAL WEATHER ROUNDUP
NATIONAL WEATHER SERVICE CHICAGO/ROMEOVILLE IL
600 PM CDT THU AUG 28 2014

NOTE: "FAIR" INDICATES FEW OR NO CLOUDS BELOW 12,000 FEET WITH NO
SIGNIFICANT WEATHER AND/OR OBSTRUCTIONS TO VISIBILITY.

* THESE STATIONS ARE NOT UNDER NWS QUALITY CONTROL. THEY ALSO MAY NOT
  REPORT WEATHER SUCH AS PRECIPITATION OR FOG.

ILZ001-002-007-009-015-016-024-290000-
NORTHWEST ILLINOIS

CITY           SKY/WX    TMP DP  RH WIND       PRES   REMARKS
MOLINE         LGT RAIN  69  67  93 E9        29.99F
$$

ILZ003-004-008-010-011-017-018-290000-
NORTH CENTRAL ILLINOIS

CITY           SKY/WX    TMP DP  RH WIND       PRES   REMARKS
ROCKFORD       NOT AVBL
$$

ILZ005-006-012>014-019>023-290000-
NORTHEAST ILLINOIS

CITY           SKY/WX    TMP DP  RH WIND       PRES   REMARKS
CHICAGO-OHARE  CLOUDY    72  58  61 NE9       30.06S
CHICAGO-MIDWAY PTSUNNY   74  62  66 E9        30.06R
AURORA         CLOUDY    75  58  55 NE8       30.05R
WAUKEGAN       PTSUNNY   68  59  73 NE6       30.08R
DUPAGE AIRPORT PTSUNNY   73  59  61 NE10      30.06R
WHEELING       PTSUNNY   71  59  65 NE6       30.09R
NORTHERLY ISL    N/A     71  62  73 NE7         N/A
$$

LMZ740>746-290000-
SOUTHERN LAKE MICHIGAN

STATION/POSITION SKY/WX   TEMP    WIND        PRES    VSBY  WAVE
                          AIR SEA DIR/SP/G                  HT/PER
                          (F)     (DEG/KT/KT) (MB)    (MI)  (FT/S)
SOUTHERN BUOY              69 69   50/ 12/ 12 1018.6F         1/ 3
WAUKEGAN HARBOR            68      70/ 11/ 12   N/A
HARRISON CRIB              69      50/ 11/ 13   N/A
BURNHAM HARBOR             71      50/  7/ 10   N/A
CALUMET HARBOR             71      30/  7/  9 1016.9R
MICHIGAN CITY              71      20/ 12/ 14   N/A
MICHIGAN CITY 6N           72 73   40/ 10/ 14   N/A           2/ 4
ST. JOSEPH                 71 72   10/ 12/ 14   N/A           2/ 3
$$

ILZ025>027-034>036-040-047-049-050-058-095>099-290000-
WEST-CENTRAL ILLINOIS

CITY           SKY/WX    TMP DP  RH WIND       PRES   REMARKS
$$

ILZ028>032-037-038-041>044-048-051>054-059>061-290000-
CENTRAL ILLINOIS

CITY           SKY/WX    TMP DP  RH WIND       PRES   REMARKS
PEORIA         NOT AVBL
SPRINGFIELD    PTSUNNY   86  73  65 SE7       29.96F HX  93
TAYLORVILLE    NOT AVBL
$$

ILZ033-039-045-046-055>057-062-063-290000-
EAST-CENTRAL ILLINOIS

CITY           SKY/WX    TMP DP  RH WIND       PRES   REMARKS
$$

ILZ079-100>102-290000-
SOUTHWEST ILLINOIS

CITY           SKY/WX    TMP DP  RH WIND       PRES   REMARKS
$$

ILZ064>066-069>071-074>076-080>082-084>086-088>090-092>094-290000-
SOUTH-CENTRAL ILLINOIS

CITY           SKY/WX    TMP DP  RH WIND       PRES   REMARKS
CARBONDALE     PTSUNNY   78  71  79 S12G21    30.00R HX  80
MARION         PTSUNNY   77  72  83 S12       30.01S
$$

ILZ067-068-072-073-078-083-087-091-290000-
SOUTHEAST ILLINOIS

CITY           SKY/WX    TMP DP  RH WIND       PRES   REMARKS
$$

ABBREVIATIONS USED IN REMARKS
   TC - TEMPERATURE IN CELSIUS
  WCI - WIND CHILL INDEX
   HX - HEAT INDEX
  VSB - VISIBILITY
$$




USA.gov is the U.S. government's official web portal to all federal, state and local government web resources and services.